Weather in Lys

Russia / Kemerovo Oblast     53°09′05″N   87°02′23″E
temp.,
°C
wind,
m/s
gust,
m/s
humid.,
%
clouds,
%
prec.,
mm/h
press.,
hPa
HPBL,
m
4 july, mon
mon401:00+11sse21975 0.5 100819
04:00+9sse11966 0.0 100810
07:00+12ese11945 0.0 100862
10:00+20ese115534 0.0 1007628
13:00+24s243922 0.0 10061969
16:00+25sw233053 0.0 10042715
19:00+24nw12465 0.0 1004201
22:00+15ene22775 0.0 100321
5 july, tue
tue501:00+13ne117863 0.0 100312
04:00+11ne22785 0.0 100115
07:00+14ene126984 0.0 99984
10:00+23e234299 0.0 997539
13:00+27s3531100 0.0 9971791
16:00+28sw46315 0.0 9961960
19:00+16wsw71793100 2.7 1001908
22:00+15sse41192100 0.4 1001431
6 july, wed
wed601:00+14s3118638 0.4 1001412
04:00+13s128820 0.0 100247
07:00+13sse2896100 0.3 1003231
10:00+18sw387040 0.3 1004911
13:00+14ssw289750 2.9 1006410
16:00+20wsw596729 1.2 10051405
19:00+14ssw31095100 3.2 1007768
22:00+13ssw3998100 0.4 1008535
7 july, thu
thu701:00+13ssw3999100 1.4 1008536
04:00+13s31098100 6.6 1007692
07:00+13sw31199100 17.0 1007730
10:00+14sw3898100 0.8 1008640
13:00+15sw389780 1.3 1009549
16:00+17sw469065 1.2 1009785
19:00+16ssw259792 2.9 1009260
22:00+14sw119721 0.8 101029
8 july, fri
fri801:00+12nne119937 0.9 101020
04:00+11n119867 0.0 101012
07:00+12ne119714 0.0 101089
10:00+19ne126511 0.0 1010728
13:00+23n224733 0.0 10081631
16:00+22n43544 0.0 10071194
19:00+21n456120 0.0 10061192
22:00+14nne23965 0.0 100752